Вернуться в каталог

SUPERVIEW NEO 3-02

АктивенНаукаSSO
NORAD 63208·PAYLOAD·🇨🇳 China

Запущен Mar 15, 2025 с Jiuquan Satellite Launch Center

Loading…

Ближайшие Пролёты (ближайшие 24 часа)

TLE

СвежийSource: Space-Track

Эпоха: Sep 14, 2026, 22:45 UTC

1 63208U 25051A   26257.94831788  .00007194  00000-0  31831-3 0  9992
2 63208  97.4455 336.3611 0001398 131.1893 228.9464 15.21974350 83491

Отслеживайте SUPERVIEW NEO 3-02 в реальном времени с AllMySat

Download on the App Store